Tracking 19572 objects as of 23-Feb-2019
HD Live streaming from Space Station
objects crossing your sky now

COSMOS 1974

Track COSMOS 1974 now!
COSMOS 1974 is classified as:


NORAD ID: 19554
Int'l Code: 1988-092A
Perigee: 6,236.2 km
Apogee: 34,107.1 km
Inclination: 69.9 °
Period: 717.3 minutes
Semi major axis: 26542 km
RCS: 16.1296 m2 (large)
Launch date: October 3, 1988
Source: Commonwealth of Independent States (former USSR) (CIS)
Launch site: PLESETSK MISSILE AND SPACE COMPLEX (PKMTR)
aabbcc
Your satellite tracking list
Your tracking list is empty




NASA's NSSDC Master Catalog

Two Line Element Set (TLE):
1 19554U 88092A   19053.86203501  .00000298  00000-0  00000+0 0  9992
2 19554  69.9058 287.5976 5250220 134.7481 100.4342  2.00764414222593
Source of the keplerian elements: AFSPC